Regional Weather Roundup
Issued by NWS

Home | Current Version | Previous Version | Graphics & Text | Print | Product List | Glossary Off
Versions: 1 2 3 4 5 6 7 8 9 10 11 12 13 14 15 16 17 18 19 20 21 22 23 24 25 26 27 28 29 30 31 32 33 34 35 36 37 38 39 40 41 42 43 44 45 46 47 48 49 50

000
ASUS43 KBIS 270510
RWRND

NORTH DAKOTA REGIONAL WEATHER ROUNDUP
NATIONAL WEATHER SERVICE BISMARCK ND
1200 AM CDT FRI MAR 27 2015

NOTE: "FAIR" INDICATES FEW OR NO CLOUDS BELOW 12,000 FEET WITH NO
SIGNIFICANT WEATHER AND/OR OBSTRUCTIONS TO VISIBILITY.


NDZ001>003-009>011-017-270600-
NORTHWEST NORTH DAKOTA

CITY           SKY/WX    TMP DP  RH WIND       PRES   REMARKS
WILLISTON      CLOUDY    38  28  67 S8        30.12F
MINOT          CLEAR     26  18  71 SE9       30.20F WCI  17
MINOT AFB      CLEAR     26  23  89 SE13      30.19F WCI  15
$$

NDZ018>021-031>035-040>046-270600-
SOUTHWEST NORTH DAKOTA

CITY           SKY/WX    TMP DP  RH WIND       PRES   REMARKS
BISMARCK       PTCLDY    23  15  71 E3        30.24F
DICKINSON      CLOUDY    32  27  81 S13       30.13F
GARRISON         N/A     26  19  74 SE8       30.19F WCI  18
HETTINGER ARPT CLOUDY    32  26  78 SE9       30.18S
$$

NDZ004>008-012>016-024-026-027-054-270600-
NORTHEAST NORTH DAKOTA

CITY           SKY/WX    TMP DP  RH WIND       PRES   REMARKS
GRAND FORKS    FAIR      16  12  84 CALM      30.30F
GRND FRKS AFB  CLEAR     17  13  84 N2        30.30S
DEVILS LAKE    CLEAR     21  16  79 SE6       30.26S WCI  14
$$

NDZ022-023-025-028>030-036>039-047>053-270600-
SOUTHEAST NORTH DAKOTA

CITY           SKY/WX    TMP DP  RH WIND       PRES   REMARKS
FARGO          CLEAR     17  10  74 NW7       30.31R WCI   8
JAMESTOWN      CLEAR     18  13  80 E6        30.26F WCI  10
$$



USA.gov is the U.S. government's official web portal to all federal, state and local government web resources and services.